• Em Portugal
  • Lista de países
  • Para 7 dias
  • Temperatura da água
  • Mapas de satélite
  • Mapa do tempo
  • Widgets de tempo
  • user-avatar
    Iniciar Sessão

    Previsão horária em Georgetown

    Hoje, 20 Junho, Quarta-feira

    Tempo Temperatura Precipitação Vento Pressão Humidade
    00:00 +33°C° 0,1 mm 8 m/s 731 mmHg 61%
    01:00 +32°C° 0,1 mm 10 m/s 731 mmHg 66%
    02:00 +32°C° 0,1 mm 9 m/s 731 mmHg 69%
    03:00 +31°C° 0,1 mm 9 m/s 732 mmHg 71%
    04:00 +31°C° 0,1 mm 8 m/s 732 mmHg 74%
    05:00 +31°C° 0,9 mm 8 m/s 732 mmHg 74%
    06:00 +29°C° 0,9 mm 8 m/s 733 mmHg 74%
    07:00 +29°C° 0,9 mm 8 m/s 733 mmHg 74%
    08:00 +30°C° 0,7 mm 7 m/s 734 mmHg 71%
    09:00 +30°C° 0,7 mm 6 m/s 734 mmHg 69%
    10:00 +32°C° 0,7 mm 5 m/s 735 mmHg 66%
    11:00 +32°C° 0,2 mm 5 m/s 735 mmHg 64%
    12:00 +32°C° 0,2 mm 5 m/s 734 mmHg 61%
    13:00 +33°C° 0,2 mm 5 m/s 734 mmHg 59%
    14:00 +33°C° 0,1 mm 5 m/s 734 mmHg 59%
    15:00 +33°C° 0,1 mm 4 m/s 733 mmHg 59%
    16:00 +32°C° 0,1 mm 4 m/s 732 mmHg 59%
    17:00 +32°C° 0 mm 4 m/s 733 mmHg 61%
    18:00 +30°C° 0 mm 4 m/s 733 mmHg 63%
    19:00 +30°C° 0 mm 4 m/s 733 mmHg 65%
    20:00 +30°C° 0 mm 4 m/s 734 mmHg 65%
    21:00 +30°C° 0 mm 4 m/s 734 mmHg 65%
    22:00 +30°C° 0 mm 3 m/s 735 mmHg 65%
    23:00 +29°C° 0 mm 4 m/s 735 mmHg 68%

    Amanhã, 21 Junho, Quinta-feira

    Tempo Temperatura Precipitação Vento Pressão Humidade
    00:00 +29°C° 0 mm 4 m/s 735 mmHg 70%
    01:00 +29°C° 0 mm 5 m/s 735 mmHg 72%
    02:00 +29°C° 0,8 mm 5 m/s 734 mmHg 72%
    03:00 +28°C° 0,8 mm 5 m/s 734 mmHg 73%
    04:00 +28°C° 0,8 mm 5 m/s 734 mmHg 73%
    05:00 +28°C° 1,6 mm 5 m/s 735 mmHg 73%
    06:00 +28°C° 1,6 mm 5 m/s 735 mmHg 74%
    07:00 +28°C° 1,6 mm 5 m/s 736 mmHg 74%
    08:00 +29°C° 0,7 mm 5 m/s 736 mmHg 71%
    09:00 +29°C° 0,7 mm 5 m/s 736 mmHg 69%
    10:00 +30°C° 0,7 mm 5 m/s 737 mmHg 66%
    11:00 +30°C° 0 mm 5 m/s 736 mmHg 65%
    12:00 +32°C° 0 mm 4 m/s 736 mmHg 63%
    13:00 +32°C° 0 mm 4 m/s 735 mmHg 62%
    14:00 +32°C° 0 mm 4 m/s 735 mmHg 61%
    15:00 +33°C° 0 mm 4 m/s 734 mmHg 60%
    16:00 +33°C° 0 mm 4 m/s 734 mmHg 59%
    17:00 +31°C° 0 mm 3 m/s 734 mmHg 60%
    18:00 +31°C° 0 mm 3 m/s 734 mmHg 61%
    19:00 +31°C° 0 mm 2 m/s 734 mmHg 61%
    20:00 +30°C° 0 mm 2 m/s 735 mmHg 62%
    21:00 +30°C° 0 mm 2 m/s 735 mmHg 62%
    22:00 +30°C° 0 mm 2 m/s 736 mmHg 62%
    23:00 +30°C° 0 mm 3 m/s 735 mmHg 62%

    Depois de amanhã, 22 Junho, Sexta-feira

    Tempo Temperatura Precipitação Vento Pressão Humidade
    00:00 +30°C° 0 mm 3 m/s 735 mmHg 63%
    01:00 +30°C° 0 mm 3 m/s 735 mmHg 63%
    02:00 +30°C° 0 mm 3 m/s 735 mmHg 64%
    03:00 +30°C° 0 mm 3 m/s 735 mmHg 64%
    04:00 +30°C° 0 mm 3 m/s 735 mmHg 65%
    05:00 +30°C° 0 mm 3 m/s 735 mmHg 64%
    06:00 +30°C° 0 mm 4 m/s 735 mmHg 64%
    07:00 +30°C° 0 mm 4 m/s 736 mmHg 63%
    08:00 +32°C° 0 mm 4 m/s 736 mmHg 61%
    09:00 +32°C° 0 mm 5 m/s 736 mmHg 60%
    10:00 +33°C° 0 mm 5 m/s 737 mmHg 58%
    11:00 +33°C° 0 mm 5 m/s 736 mmHg 57%
    12:00 +34°C° 0 mm 5 m/s 735 mmHg 55%
    13:00 +34°C° 0 mm 5 m/s 735 mmHg 54%
    14:00 +34°C° 0 mm 4 m/s 734 mmHg 54%
    15:00 +34°C° 0 mm 3 m/s 734 mmHg 53%
    16:00 +34°C° 0 mm 2 m/s 733 mmHg 53%
    17:00 +34°C° 0 mm 2 m/s 733 mmHg 53%
    18:00 +34°C° 0 mm 2 m/s 733 mmHg 52%
    19:00 +34°C° 0 mm 2 m/s 734 mmHg 52%
    20:00 +34°C° 0 mm 2 m/s 734 mmHg 52%
    21:00 +34°C° 0 mm 2 m/s 734 mmHg 52%
    22:00 +34°C° 0 mm 2 m/s 734 mmHg 52%
    23:00 +32°C° 0,1 mm 1 m/s 734 mmHg 54%

    23 Junho, Sábado

    Tempo Temperatura Precipitação Vento Pressão Humidade
    00:00 +32°C° 0,1 mm 1 m/s 734 mmHg 55%
    01:00 +32°C° 0,1 mm 1 m/s 734 mmHg 56%
    02:00 +31°C° 0,1 mm 1 m/s 734 mmHg 56%
    03:00 +31°C° 0,1 mm 1 m/s 733 mmHg 56%
    04:00 +31°C° 0,1 mm 1 m/s 733 mmHg 56%
    05:00 +31°C° 0 mm 2 m/s 734 mmHg 55%
    06:00 +33°C° 0 mm 3 m/s 734 mmHg 55%
    07:00 +33°C° 0 mm 4 m/s 734 mmHg 54%
    08:00 +33°C° 0 mm 4 m/s 735 mmHg 54%
    09:00 +33°C° 0 mm 4 m/s 735 mmHg 55%
    10:00 +34°C° 0 mm 4 m/s 736 mmHg 56%
    11:00 +34°C° 0,1 mm 4 m/s 735 mmHg 56%
    12:00 +34°C° 0,1 mm 4 m/s 735 mmHg 55%
    13:00 +34°C° 0,1 mm 4 m/s 734 mmHg 55%
    14:00 +34°C° 0 mm 4 m/s 733 mmHg 53%
    15:00 +35°C° 0 mm 4 m/s 733 mmHg 52%
    16:00 +35°C° 0 mm 4 m/s 732 mmHg 50%
    17:00 +35°C° 0 mm 4 m/s 733 mmHg 51%
    18:00 +34°C° 0 mm 4 m/s 733 mmHg 51%
    19:00 +34°C° 0 mm 3 m/s 733 mmHg 52%
    20:00 +34°C° 0 mm 3 m/s 733 mmHg 53%
    21:00 +32°C° 0 mm 2 m/s 733 mmHg 54%
    22:00 +32°C° 0 mm 2 m/s 733 mmHg 55%
    23:00 +32°C° 0 mm 2 m/s 733 mmHg 56%

    24 Junho, Domingo

    Tempo Temperatura Precipitação Vento Pressão Humidade
    00:00 +31°C° 0 mm 2 m/s 733 mmHg 57%
    01:00 +31°C° 0 mm 2 m/s 732 mmHg 59%
    02:00 +31°C° 0 mm 2 m/s 732 mmHg 59%
    03:00 +30°C° 0 mm 3 m/s 732 mmHg 60%
    04:00 +30°C° 0 mm 4 m/s 732 mmHg 61%
    05:00 +30°C° 0 mm 5 m/s 733 mmHg 63%
    06:00 +30°C° 0 mm 6 m/s 733 mmHg 66%
    07:00 +30°C° 0 mm 7 m/s 734 mmHg 68%
    08:00 +30°C° 0 mm 6 m/s 734 mmHg 68%
    09:00 +30°C° 0 mm 6 m/s 735 mmHg 68%
    10:00 +32°C° 0 mm 5 m/s 735 mmHg 68%
    11:00 +32°C° 0 mm 5 m/s 734 mmHg 64%
    12:00 +33°C° 0 mm 5 m/s 734 mmHg 61%
    13:00 +34°C° 0 mm 4 m/s 733 mmHg 58%
    14:00 +34°C° 0 mm 4 m/s 732 mmHg 55%
    15:00 +35°C° 0 mm 4 m/s 732 mmHg 52%
    16:00 +35°C° 0 mm 3 m/s 731 mmHg 49%
    17:00 +35°C° 0 mm 3 m/s 732 mmHg 50%
    18:00 +35°C° 0 mm 2 m/s 732 mmHg 51%
    19:00 +34°C° 0 mm 2 m/s 732 mmHg 52%
    20:00 +34°C° 0 mm 2 m/s 732 mmHg 53%
    21:00 +34°C° 0 mm 2 m/s 732 mmHg 54%
    22:00 +33°C° 0 mm 1 m/s 732 mmHg 55%
    23:00 +32°C° 0 mm 2 m/s 732 mmHg 54%

    25 Junho, Segunda-feira

    Tempo Temperatura Precipitação Vento Pressão Humidade
    00:00 +32°C° 0 mm 2 m/s 732 mmHg 54%
    01:00 +32°C° 0 mm 2 m/s 732 mmHg 53%
    02:00 +32°C° 0 mm 2 m/s 732 mmHg 54%
    03:00 +33°C° 0 mm 3 m/s 732 mmHg 54%
    04:00 +33°C° 0 mm 4 m/s 732 mmHg 55%
    05:00 +33°C° 0 mm 5 m/s 732 mmHg 55%
    06:00 +33°C° 0 mm 6 m/s 733 mmHg 55%
    07:00 +33°C° 0 mm 7 m/s 733 mmHg 56%
    08:00 +33°C° 0 mm 7 m/s 733 mmHg 55%
    09:00 +34°C° 0 mm 6 m/s 734 mmHg 55%
    10:00 +34°C° 0 mm 6 m/s 734 mmHg 54%
    11:00 +34°C° 0 mm 5 m/s 734 mmHg 52%
    12:00 +35°C° 0 mm 4 m/s 733 mmHg 51%
    13:00 +36°C° 0 mm 3 m/s 733 mmHg 49%
    14:00 +36°C° 0 mm 3 m/s 732 mmHg 49%
    15:00 +36°C° 0 mm 3 m/s 732 mmHg 49%
    16:00 +36°C° 0 mm 3 m/s 732 mmHg 48%
    17:00 +36°C° 0 mm 2 m/s 732 mmHg 47%
    18:00 +36°C° 0 mm 2 m/s 732 mmHg 47%
    19:00 +36°C° 0 mm 2 m/s 732 mmHg 46%
    20:00 +35°C° 0 mm 3 m/s 732 mmHg 46%
    21:00 +35°C° 0 mm 4 m/s 732 mmHg 47%
    22:00 +35°C° 0 mm 5 m/s 733 mmHg 47%
    23:00 +34°C° 0 mm 5 m/s 732 mmHg 54%
    Mostrar mais